| time (UTC) | temp C | wind direction | speed KPH | gust KPH | rain 1hr cm | rain 24hr cm | rain mn cm | humidity % | barometer mb |
| 20260508043833 | 10 | 307 | 4.8 | 4.8 | 0.00 | 0.00 | 0.00 | 73 | 1012.8 |
| 20260508042832 | 10 | 299 | 1.6 | 1.6 | 0.00 | 0.00 | 0.00 | 77 | 1012.8 |
| 20260508041827 | 9 | 297 | 3.2 | 4.8 | 0.00 | 0.00 | 0.00 | 78 | 1012.8 |
| 20260508040826 | 9 | 291 | 3.2 | 4.8 | 0.00 | 0.00 | 0.00 | 81 | 1012.4 |
| 20260508035826 | 8 | 297 | 3.2 | 3.2 | 0.00 | 0.46 | 0.46 | 84 | 1012.4 |
| 20260508034826 | 8 | 297 | 1.6 | 1.6 | 0.00 | 0.46 | 0.46 | 85 | 1012.8 |
| 20260508033826 | 10 | 300 | 1.6 | 1.6 | 0.00 | 0.46 | 0.46 | 78 | 1012.4 |
| 20260508032821 | 10 | 299 | 1.6 | 1.6 | 0.00 | 0.46 | 0.46 | 76 | 1012.4 |
| 20260508031821 | 10 | 309 | 3.2 | 3.2 | 0.00 | 0.46 | 0.46 | 77 | 1012.4 |
| 20260508030820 | 9 | 295 | 8.0 | 9.7 | 0.00 | 0.46 | 0.46 | 80 | 1012.1 |
| 20260508025820 | 11 | 296 | 0.0 | 1.6 | 0.00 | 0.46 | 0.46 | 78 | 1012.1 |
| 20260508024820 | 8 | 304 | 0.0 | 1.6 | 0.00 | 0.46 | 0.46 | 79 | 1011.8 |
| 20260508023819 | 7 | 288 | 0.0 | 0.0 | 0.00 | 0.46 | 0.46 | 98 | 1011.8 |
| 20260508022818 | 7 | 297 | 3.2 | 3.2 | 0.00 | 0.46 | 0.46 | 99 | 1011.8 |
| 20260508021818 | 7 | 307 | 1.6 | 3.2 | 0.00 | 0.46 | 0.46 | 99 | 1011.4 |
| 20260508020815 | 8 | 301 | 0.0 | 0.0 | 0.00 | 0.46 | 0.46 | 99 | 1011.1 |
| 20260508015810 | 8 | 290 | 0.0 | 0.0 | 0.00 | 0.46 | 0.46 | 99 | 1011.1 |
| 20260508014810 | 8 | 301 | 0.0 | 0.0 | 0.00 | 0.46 | 0.46 | 99 | 1011.1 |
| 20260508013808 | 9 | 288 | 0.0 | 3.2 | 0.00 | 0.46 | 0.46 | 98 | 1011.1 |
| 20260508012803 | 10 | 288 | 0.0 | 0.0 | 0.00 | 0.46 | 0.46 | 99 | 1010.8 |
| 20260508011804 | 10 | 287 | 0.0 | 0.0 | 0.00 | 0.46 | 0.46 | 98 | 1010.8 |
| 20260508010803 | 10 | 288 | 0.0 | 0.0 | 0.00 | 0.46 | 0.46 | 98 | 1010.8 |
| 20260508005803 | 10 | 288 | 0.0 | 0.0 | 0.00 | 0.46 | 0.46 | 98 | 1010.4 |
| 20260508004802 | 10 | 306 | 1.6 | 1.6 | 0.00 | 0.46 | 0.46 | 98 | 1010.4 |
| 20260508003800 | 11 | 319 | 3.2 | 3.2 | 0.00 | 0.46 | 0.46 | 96 | 1010.4 |
| 20260508002800 | 12 | 308 | 3.2 | 3.2 | 0.00 | 0.46 | 0.46 | 95 | 1010.4 |
| 20260508001759 | 12 | 291 | 0.0 | 0.0 | 0.00 | 0.46 | 0.46 | 93 | 1010.4 |
| 20260508000757 | 13 | 290 | 0.0 | 0.0 | 0.00 | 0.46 | 0.46 | 91 | 1010.1 |
| 20260507235756 | 14 | 289 | 0.0 | 0.0 | 0.00 | 0.46 | 0.46 | 90 | 1010.1 |
| 20260507234751 | 13 | 289 | 0.0 | 0.0 | 0.00 | 0.46 | 0.46 | 92 | 1010.1 |
| 20260507233749 | 13 | 290 | 1.6 | 1.6 | 0.00 | 0.46 | 0.46 | 93 | 1010.1 |
| 20260507232745 | 13 | 277 | 0.0 | 0.0 | 0.00 | 0.46 | 0.46 | 93 | 1010.1 |
| 20260507231743 | 13 | 277 | 0.0 | 0.0 | 0.00 | 0.46 | 0.46 | 93 | 1010.1 |
| 20260507230743 | 13 | 276 | 0.0 | 0.0 | 0.00 | 0.46 | 0.46 | 92 | 1009.3 |
| 20260507225740 | 13 | 278 | 1.6 | 1.6 | 0.00 | 0.46 | 0.46 | 93 | 1009.3 |
| 20260507224738 | 13 | 288 | 0.0 | 0.0 | 0.00 | 0.46 | 0.46 | 93 | 1009.6 |
| 20260507223737 | 12 | 290 | 0.0 | 0.0 | 0.00 | 0.46 | 0.46 | 93 | 1009.6 |
| 20260507222736 | 12 | 310 | 0.0 | 0.0 | 0.00 | 0.46 | 0.46 | 94 | 1009.3 |
| 20260507221736 | 12 | 328 | 3.2 | 3.2 | 0.00 | 0.46 | 0.46 | 94 | 1009.3 |
| 20260507220734 | 12 | 326 | 3.2 | 3.2 | 0.00 | 0.46 | 0.46 | 93 | 1009.3 |
| 20260507215734 | 13 | 276 | 1.6 | 1.6 | 0.00 | 0.46 | 0.46 | 93 | 1009.3 |
| 20260507214734 | 13 | 279 | 0.0 | 0.0 | 0.00 | 0.46 | 0.46 | 94 | 1009.0 |
| 20260507213733 | 13 | 286 | 0.0 | 0.0 | 0.00 | 0.46 | 0.46 | 94 | 1009.0 |
| 20260507212732 | 13 | 286 | 1.6 | 1.6 | 0.00 | 0.46 | 0.46 | 94 | 1009.3 |
| 20260507211731 | 12 | 56 | 4.8 | 4.8 | 0.00 | 0.46 | 0.46 | 94 | 1009.3 |
| 20260507210730 | 13 | 73 | 6.4 | 8.0 | 0.00 | 0.46 | 0.46 | 95 | 1009.0 |
| 20260507205729 | 12 | 47 | 4.8 | 4.8 | 0.00 | 0.46 | 0.46 | 96 | 1009.3 |
| 20260507204728 | 12 | 67 | 4.8 | 8.0 | 0.00 | 0.46 | 0.46 | 97 | 1008.6 |
| 20260507203724 | 13 | 300 | 4.8 | 8.0 | 0.00 | 0.46 | 0.46 | 97 | 1009.0 |
| 20260507202723 | 12 | 309 | 1.6 | 3.2 | 0.00 | 0.46 | 0.46 | 98 | 1009.0 |
| 20260507201720 | 12 | 307 | 3.2 | 3.2 | 0.00 | 0.46 | 0.46 | 99 | 1009.0 |
| 20260507200719 | 12 | 284 | 4.8 | 4.8 | 0.00 | 0.46 | 0.46 | 99 | 1009.3 |
| 20260507195718 | 12 | 52 | 4.8 | 4.8 | 0.00 | 0.46 | 0.46 | 99 | 1009.6 |
| 20260507194718 | 11 | 333 | 4.8 | 4.8 | 0.00 | 0.46 | 0.46 | 99 | 1009.6 |
| 20260507193717 | 11 | 307 | 1.6 | 1.6 | 0.00 | 0.46 | 0.46 | 99 | 1009.6 |
| 20260507192716 | 11 | 308 | 1.6 | 1.6 | 0.00 | 0.46 | 0.46 | 99 | 1010.1 |
| 20260507191714 | 11 | 359 | 4.8 | 4.8 | 0.00 | 0.46 | 0.46 | 99 | 1010.1 |
| 20260507190714 | 11 | 348 | 3.2 | 3.2 | 0.00 | 0.46 | 0.46 | 99 | 1010.1 |
| 20260507185711 | 11 | 285 | 0.0 | 1.6 | 0.00 | 0.46 | 0.46 | 99 | 1010.4 |
| 20260507184711 | 11 | 81 | 4.8 | 8.0 | 0.00 | 0.46 | 0.46 | 99 | 1010.8 |
| 20260507183711 | 11 | 290 | 0.0 | 0.0 | 0.00 | 0.46 | 0.46 | 99 | 1010.8 |
| 20260507182711 | 11 | 54 | 6.4 | 8.0 | 0.00 | 0.46 | 0.46 | 99 | 1010.1 |
| 20260507181709 | 11 | 286 | 1.6 | 1.6 | 0.00 | 0.46 | 0.46 | 99 | 1010.1 |
| 20260507180709 | 11 | 315 | 1.6 | 1.6 | 0.00 | 0.46 | 0.46 | 99 | 1010.1 |
| 20260507175706 | 11 | 53 | 6.4 | 8.0 | 0.00 | 0.46 | 0.46 | 99 | 1010.4 |
| 20260507174701 | 11 | 280 | 0.0 | 0.0 | 0.18 | 0.43 | 0.43 | 99 | 1010.4 |
| 20260507173656 | 11 | 286 | 0.0 | 0.0 | 0.13 | 0.41 | 0.41 | 99 | 1010.4 |
| 20260507172655 | 11 | 294 | 0.0 | 0.0 | 0.18 | 0.38 | 0.38 | 99 | 1010.4 |
| 20260507171652 | 11 | 342 | 3.2 | 4.8 | 0.48 | 0.36 | 0.36 | 99 | 1010.4 |
| 20260507170652 | 11 | 317 | 1.6 | 1.6 | 0.13 | 0.28 | 0.28 | 99 | 1010.8 |
| 20260507165651 | 12 | 306 | 0.0 | 1.6 | 0.18 | 0.25 | 0.25 | 98 | 1010.4 |
| 20260507164649 | 12 | 302 | 0.0 | 0.0 | 0.18 | 0.20 | 0.20 | 98 | 1010.4 |
| 20260507163650 | 12 | 330 | 3.2 | 3.2 | 0.13 | 0.18 | 0.18 | 98 | 1010.4 |
| 20260507162649 | 12 | 286 | 0.0 | 0.0 | 0.18 | 0.15 | 0.15 | 98 | 1010.4 |
| 20260507161648 | 12 | 297 | 0.0 | 1.6 | 0.13 | 0.13 | 0.13 | 97 | 1010.4 |
| 20260507160647 | 12 | 277 | 1.6 | 1.6 | 0.18 | 0.10 | 0.10 | 97 | 1010.8 |
| 20260507155645 | 12 | 286 | 0.0 | 0.0 | 0.00 | 0.08 | 0.08 | 97 | 1010.8 |
| 20260507154644 | 12 | 260 | 0.0 | 0.0 | 0.13 | 0.08 | 0.08 | 97 | 1010.8 |
| 20260507153644 | 12 | 313 | 4.8 | 4.8 | 0.00 | 0.05 | 0.05 | 96 | 1010.8 |
| 20260507152642 | 13 | 304 | 3.2 | 4.8 | 0.18 | 0.05 | 0.05 | 96 | 1010.8 |
| 20260507151640 | 13 | 311 | 1.6 | 1.6 | 0.00 | 0.03 | 0.03 | 96 | 1010.8 |
| 20260507150639 | 13 | 323 | 3.2 | 3.2 | 0.18 | 0.03 | 0.03 | 95 | 1010.8 |
| 20260507145637 | 13 | 329 | 6.4 | 8.0 | 0.00 | 0.00 | 0.00 | 94 | 1010.8 |
| 20260507144637 | 14 | 281 | 3.2 | 4.8 | 0.00 | 0.00 | 0.00 | 94 | 1010.8 |
| 20260507143637 | 15 | 263 | 3.2 | 3.2 | 0.00 | 0.00 | 0.00 | 93 | 1010.4 |
| 20260507142635 | 15 | 92 | 8.0 | 9.7 | 0.00 | 0.00 | 0.00 | 91 | 1010.4 |
| 20260507141635 | 15 | 267 | 3.2 | 3.2 | 0.00 | 0.00 | 0.00 | 86 | 1010.4 |
| 20260507140634 | 15 | 274 | 1.6 | 1.6 | 0.00 | 0.00 | 0.00 | 82 | 1010.1 |
| 20260507135634 | 15 | 290 | 3.2 | 3.2 | 0.00 | 0.00 | 0.00 | 83 | 1010.8 |
| 20260507134633 | 15 | 296 | 0.0 | 1.6 | 0.00 | 0.00 | 0.00 | 87 | 1010.8 |
| 20260507133631 | 15 | 298 | 1.6 | 1.6 | 0.00 | 0.00 | 0.00 | 85 | 1010.8 |
| 20260507132631 | 15 | 288 | 1.6 | 1.6 | 0.00 | 0.00 | 0.00 | 85 | 1010.8 |
| 20260507131630 | 15 | 292 | 0.0 | 1.6 | 0.00 | 0.00 | 0.00 | 84 | 1010.4 |
| 20260507130630 | 15 | 307 | 3.2 | 3.2 | 0.00 | 0.00 | 0.00 | 82 | 1010.1 |
| 20260507125627 | 16 | 308 | 1.6 | 3.2 | 0.00 | 0.00 | 0.00 | 83 | 1010.1 |
| 20260507124625 | 16 | 27 | 4.8 | 4.8 | 0.00 | 0.00 | 0.00 | 80 | 1010.1 |
| 20260507123622 | 16 | 296 | 4.8 | 4.8 | 0.00 | 0.00 | 0.00 | 79 | 1010.1 |
| 20260507122619 | 16 | 270 | 1.6 | 1.6 | 0.00 | 0.00 | 0.00 | 79 | 1009.6 |
| 20260507121617 | 16 | 274 | 4.8 | 4.8 | 0.00 | 0.00 | 0.00 | 78 | 1010.1 |
| 20260507120615 | 16 | 276 | 1.6 | 1.6 | 0.00 | 0.00 | 0.00 | 80 | 1010.1 |
| 20260507115615 | 16 | 317 | 1.6 | 1.6 | 0.00 | 0.00 | 0.00 | 80 | 1009.6 |
| 20260507114612 | 16 | 283 | 0.0 | 1.6 | 0.00 | 0.00 | 0.00 | 80 | 1009.6 |
| 20260507113607 | 16 | 267 | 11.3 | 11.3 | 0.00 | 0.00 | 0.00 | 78 | 1009.6 |
| 20260507112602 | 16 | 254 | 8.0 | 9.7 | 0.00 | 0.00 | 0.00 | 78 | 1009.3 |
| 20260507111601 | 16 | 286 | 1.6 | 3.2 | 0.00 | 0.00 | 0.00 | 77 | 1009.3 |
| 20260507110600 | 16 | 328 | 8.0 | 9.7 | 0.00 | 0.00 | 0.00 | 78 | 1009.3 |
| 20260507105559 | 16 | 219 | 6.4 | 8.0 | 0.00 | 0.00 | 0.00 | 78 | 1009.3 |
| 20260507104559 | 16 | 246 | 9.7 | 12.9 | 0.00 | 0.00 | 0.00 | 80 | 1009.3 |
| 20260507103557 | 16 | 257 | 8.0 | 9.7 | 0.00 | 0.00 | 0.00 | 79 | 1009.0 |
| 20260507102556 | 15 | 267 | 4.8 | 4.8 | 0.00 | 0.00 | 0.00 | 84 | 1009.3 |
| 20260507101554 | 15 | 269 | 1.6 | 3.2 | 0.00 | 0.00 | 0.00 | 85 | 1009.0 |
| 20260507100554 | 16 | 308 | 1.6 | 1.6 | 0.00 | 0.00 | 0.00 | 81 | 1009.0 |
| 20260507095549 | 16 | 245 | 3.2 | 4.8 | 0.00 | 0.00 | 0.00 | 81 | 1009.0 |
| 20260507094548 | 16 | 279 | 1.6 | 1.6 | 0.00 | 0.00 | 0.00 | 82 | 1009.0 |
| 20260507093548 | 16 | 293 | 6.4 | 8.0 | 0.00 | 0.00 | 0.00 | 82 | 1009.3 |
| 20260507092543 | 16 | 315 | 4.8 | 4.8 | 0.00 | 0.00 | 0.00 | 85 | 1009.3 |
| 20260507091542 | 16 | 278 | 1.6 | 1.6 | 0.00 | 0.00 | 0.00 | 85 | 1008.6 |
| 20260507090540 | 16 | 286 | 1.6 | 1.6 | 0.00 | 0.00 | 0.00 | 82 | 1008.6 |
| 20260507085540 | 16 | 261 | 3.2 | 3.2 | 0.00 | 0.00 | 0.00 | 85 | 1009.0 |
| 20260507084539 | 16 | 295 | 4.8 | 8.0 | 0.00 | 0.00 | 0.00 | 84 | 1009.3 |
| 20260507083538 | 16 | 284 | 1.6 | 1.6 | 0.00 | 0.00 | 0.00 | 85 | 1009.3 |
| 20260507082537 | 16 | 254 | 4.8 | 4.8 | 0.00 | 0.00 | 0.00 | 85 | 1009.3 |
| 20260507081536 | 16 | 295 | 4.8 | 4.8 | 0.00 | 0.00 | 0.00 | 85 | 1009.3 |
| 20260507080535 | 16 | 309 | 8.0 | 9.7 | 0.00 | 0.00 | 0.00 | 85 | 1009.3 |
| 20260507075533 | 16 | 273 | 9.7 | 12.9 | 0.00 | 0.00 | 0.00 | 84 | 1009.6 |
| 20260507074532 | 17 | 264 | 8.0 | 9.7 | 0.00 | 0.00 | 0.00 | 85 | 1009.3 |
| 20260507073532 | 16 | 280 | 6.4 | 8.0 | 0.00 | 0.00 | 0.00 | 86 | 1009.0 |
| 20260507072532 | 17 | 281 | 9.7 | 12.9 | 0.00 | 0.00 | 0.00 | 87 | 1009.3 |
| 20260507071527 | 17 | 253 | 6.4 | 9.7 | 0.00 | 0.00 | 0.00 | 85 | 1008.6 |
| 20260507070526 | 17 | 288 | 6.4 | 8.0 | 0.00 | 0.00 | 0.00 | 86 | 1009.0 |
| 20260507065525 | 17 | 303 | 11.3 | 12.9 | 0.00 | 0.00 | 0.00 | 88 | 1009.3 |
| 20260507064521 | 17 | 273 | 9.7 | 12.9 | 0.00 | 0.00 | 0.00 | 90 | 1009.0 |
| 20260507063521 | 16 | 313 | 4.8 | 4.8 | 0.00 | 0.00 | 0.00 | 96 | 1008.6 |
| 20260507062521 | 16 | 297 | 6.4 | 8.0 | 0.00 | 0.00 | 0.00 | 98 | 1009.0 |
| 20260507061516 | 16 | 281 | 3.2 | 8.0 | 0.00 | 0.00 | 0.00 | 99 | 1009.0 |
| 20260507060512 | 16 | 283 | 1.6 | 1.6 | 0.00 | 0.00 | 0.00 | 99 | 1009.3 |
| 20260507055509 | 16 | 283 | 0.0 | 0.0 | 0.00 | 0.00 | 0.00 | 99 | 1009.3 |
| 20260507054507 | 16 | 284 | 0.0 | 1.6 | 0.00 | 0.00 | 0.00 | 99 | 1009.6 |
| 20260507053507 | 16 | 284 | 0.0 | 1.6 | 0.00 | 0.00 | 0.00 | 99 | 1010.1 |
| 20260507052503 | 16 | 284 | 0.0 | 0.0 | 0.00 | 0.00 | 0.00 | 99 | 1010.4 |
| 20260507051503 | 16 | 285 | 0.0 | 0.0 | 0.00 | 0.00 | 0.00 | 99 | 1009.6 |
| 20260507050501 | 16 | 284 | 0.0 | 0.0 | 0.00 | 0.00 | 0.00 | 98 | 1009.3 |
| 20260507045501 | 16 | 285 | 0.0 | 0.0 | 0.00 | 0.00 | 0.00 | 98 | 1009.3 |
| 20260507044500 | 16 | 284 | 0.0 | 0.0 | 0.00 | 0.00 | 0.00 | 98 | 1009.3 |